EW3156 Weather Reports


Display with metric or nautical units.
time (UTC)temp
F
wind
direction
speed
MPH
gust
MPH
rain 1hr
in
rain 24hr
in
rain mn
in
humidity
%
barometer
mb
20260506044502 71 327 1.0 6.0 0.00 0.00 0.00 75 1011.8
20260506043100 71 162 1.0 6.0 0.00 0.00 0.00 74 1011.6
20260506041608 71 35 1.0 5.0 0.00 0.00 0.00 74 1011.7
20260506040100 71 143 1.0 9.0 0.00 0.00 0.00 74 1011.7
20260506034659 71 191 2.0 6.0 0.00 0.00 0.00 74 1011.8
20260506033100 71 207 1.0 4.0 0.00 0.00 0.00 73 1011.8
20260506031557 72 163 0.0 4.0 0.00 0.00 0.00 72 1011.9
20260506030057 72 155 0.0 3.0 0.00 0.00 0.00 72 1011.5
20260506024556 71 158 0.0 5.0 0.00 0.00 0.00 71 1011.5
20260506023106 71 235 0.0 1.0 0.00 0.00 0.00 70 1011.5
20260506021612 71 217 0.0 2.0 0.00 0.00 0.00 69 1011.2
20260506020054 71 198 0.0 1.0 0.00 0.00 0.00 69 1011.3
20260506014554 71 198 0.0 0.0 0.00 0.00 0.00 69 1011.2
20260506013104 72 198 0.0 1.0 0.00 0.00 0.00 69 1011.2
20260506011613 72 198 0.0 1.0 0.00 0.00 0.00 68 1011.4
20260506010057 72 198 0.0 1.0 0.00 0.00 0.00 68 1011.3
20260506004550 73 198 0.0 3.0 0.00 0.00 0.00 66 1011.1
20260506003049 74 198 0.0 0.0 0.00 0.00 0.00 65 1011.0
20260506001552 75 198 0.0 1.0 0.00 0.00 0.00 64 1011.2
20260506000049 75 198 0.0 1.0 0.00 0.00 0.00 63 1011.4
20260505234545 75 198 0.0 2.0 0.00 0.00 0.00 62 1011.2
20260505233041 75 198 0.0 2.0 0.00 0.00 0.00 62 1011.5
20260505231556 76 198 0.0 2.0 0.00 0.00 0.00 61 1011.7
20260505230040 76 179 1.0 7.0 0.00 0.00 0.00 59 1011.7
20260505224539 76 119 0.0 3.0 0.00 0.00 0.00 60 1011.9
20260505223040 76 205 0.0 4.0 0.00 0.00 0.00 59 1011.9
20260505221538 77 150 1.0 4.0 0.00 0.00 0.00 58 1011.7
20260505220037 77 132 1.0 5.0 0.00 0.00 0.00 58 1011.7
20260505214549 78 248 1.0 8.0 0.00 0.00 0.00 57 1011.9
20260505213039 78 184 1.0 4.0 0.00 0.00 0.00 57 1011.9
20260505211535 79 200 0.0 5.0 0.00 0.00 0.00 59 1011.7
20260505210033 79 335 1.0 5.0 0.00 0.00 0.00 56 1011.6
20260505204531 79 35 0.0 7.0 0.00 0.00 0.00 56 1011.8
20260505203047 79 205 2.0 7.0 0.00 0.00 0.00 59 1011.9
20260505201532 77 130 1.0 4.0 0.00 0.00 0.00 58 1012.2
20260505200023 77 134 1.0 5.0 0.00 0.00 0.00 58 1012.7
20260505194522 78 200 1.0 4.0 0.00 0.00 0.00 58 1012.7
20260505193029 77 112 1.0 6.0 0.00 0.00 0.00 57 1013.0
20260505191521 78 104 1.0 5.0 0.00 0.00 0.00 57 1012.9
20260505190018 77 173 2.0 8.0 0.00 0.00 0.00 58 1013.3
20260505184517 77 257 1.0 6.0 0.00 0.00 0.00 59 1013.4
20260505183019 76 188 1.0 3.0 0.00 0.00 0.00 61 1013.6
20260505181513 75 180 1.0 5.0 0.00 0.00 0.00 60 1013.7
20260505180017 74 211 1.0 5.0 0.00 0.00 0.00 63 1013.8
20260505174511 74 338 1.0 5.0 0.00 0.00 0.00 62 1014.1
20260505173009 75 216 1.0 4.0 0.00 0.00 0.00 60 1014.2
20260505171507 74 195 1.0 4.0 0.00 0.00 0.00 62 1014.3
20260505170004 73 134 2.0 5.0 0.00 0.00 0.00 63 1014.6
20260505164559 74 202 1.0 7.0 0.00 0.00 0.00 63 1014.6
20260505163056 72 244 1.0 8.0 0.00 0.00 0.00 65 1014.7
20260505161615 72 169 1.0 6.0 0.00 0.00 0.00 64 1014.6
20260505153052 71 181 1.0 8.0 0.00 0.00 0.00 65 1014.8
20260505151556 71 141 1.0 5.0 0.00 0.00 0.00 66 1014.9
20260505124504 57 205 0.0 0.0 0.00 0.00 0.00 91 1014.1
20260505123104 54 205 0.0 0.0 0.00 0.00 0.00 96 1013.9
20260505121618 53 205 0.0 0.0 0.00 0.00 0.00 96 1013.8
20260505120055 52 205 0.0 2.0 0.00 0.00 0.00 96 1013.8
20260505114552 51 207 0.0 0.0 0.00 0.00 0.00 95 1013.6
20260505113049 51 207 0.0 0.0 0.00 0.00 0.00 95 1013.5
20260505111548 51 207 0.0 0.0 0.00 0.00 0.00 94 1013.3
20260505101552 53 207 0.0 0.0 0.00 0.00 0.00 93 1012.8
20260505100040 53 207 0.0 0.0 0.00 0.00 0.00 92 1012.9
20260505094540 53 207 0.0 0.0 0.00 0.00 0.00 92 1013.1
20260505093041 53 207 0.0 0.0 0.00 0.00 0.00 91 1013.2
20260505091539 53 207 0.0 0.0 0.00 0.00 0.00 90 1013.3
20260505090048 54 207 0.0 0.0 0.00 0.00 0.00 89 1013.2
20260505084531 54 207 0.0 0.0 0.00 0.00 0.00 89 1013.4
20260505083032 54 207 0.0 0.0 0.00 0.00 0.00 88 1013.4
20260505081531 55 207 0.0 0.0 0.00 0.00 0.00 88 1013.5
20260505080027 55 207 0.0 0.0 0.00 0.00 0.00 87 1013.6
20260505074524 56 207 0.0 0.0 0.00 0.00 0.00 86 1013.8
20260505073032 56 207 0.0 0.0 0.00 0.00 0.00 84 1013.8
20260505071524 57 207 0.0 0.0 0.00 0.00 0.00 82 1013.7
20260505070022 57 207 0.0 0.0 0.00 0.00 0.00 81 1013.6
20260505064525 58 207 0.0 0.0 0.00 0.00 0.00 80 1013.6
20260505063024 58 207 0.0 0.0 0.00 0.00 0.00 77 1013.7
20260505061519 58 207 0.0 1.0 0.00 0.00 0.00 79 1013.7
20260505060027 56 207 0.0 1.0 0.00 0.00 0.00 82 1014.0